CONNECTA IOT-9

Satellite information

Favourite Embed

Satellite Type and Status

PAYLOADIN ORBIT

Key statistics

Satellite CONNECTA IOT-9 at a glance.

Uptime

174

Days in orbit

Revolutions

≈ 15.2

Per day

Orbit

SSO

Sun Synchronous Orbit

Inclination

97.5

Latest

Satellite identification and parameters

Extended collection of information and parameters for CONNECTA IOT-9.

Object identification

Identified? True

Debris? False

Object name: CONNECTA IOT-9

International designator: 2025-135G

Object number (NORAD): 64534

Object ID (CCSDS): 64534

Country: TURKEY (TURK)

Current information (Y/N): Y

RCS size: MEDIUM

Orbital parameters

Period: 94.829 minutes

Inclination: 97.4626 deg

SMA: 6888.441 km

Apoapsis: 514.73 km

Periapsis: 505.881 km

RAAN: 99.191 deg

Eccentricy: 0.00064231

Argument of periapsis: 93.4778 deg

Mean anomaly: 266.7191 deg

Mean motion: 15.18523071 rev/day

Mean motion (dot): 0.00006087 rev/day2

B* drag term: 0.00029800261 1/REarth

Two-line elements (TLE)

Creation date: Dec. 13, 2025, 5:47 p.m.

Reference frame: TEME

Reference center: EARTH

Epoch: Dec. 13, 2025, 7:08 a.m. UTC

TLE line 0: 0 CONNECTA IOT-9

TLE line 1: 1 64534U 25135G 25347.29784880 .00006087 00000-0 29800-3 0 9998

TLE line 2: 2 64534 97.4626 99.1910 0006423 93.4778 266.7191 15.18523071 26597

Live tracking on map

Real-time ground track for satellite CONNECTA IOT-9.

In-orbit conjunctions

There are no conjunctions computed for CONNECTA IOT-9, at the moment. Check back to stay up to date, as we update our databases every day.

Go to all conjunctions

Associated space launch

Dedicated rideshare flight to a sun-synchronous orbit with dozens of small microsatellites and nanosatellites for commercial and government customers.

CONNECTA IOT-9 was lifted into orbit during the mission ‘Falcon 9 Block 5 | Transporter 14 (Dedicated SSO Rideshare)’, on board a Falcon 9 space rocket.

The launch took place on June 23, 2025, 9:25 p.m. from Space Launch Complex 4E.

For more information about the launch, click the button.

Launch to space Falcon 9 Block 5 | Transporter 14 (Dedicated SSO Rideshare)
Falcon 9 Block 5 | Transporter 14 (Dedicated SSO Rideshare)

Agency: SpaceX

Status: Launch Successful

Launch date: June 23, 2025, 9:25 p.m. UTC

Rocket: Falcon 9

Launch pad: Space Launch Complex 4E

Location: Vandenberg SFB, CA, USA

...

Latest news about this satellite

News about space launch
The Exploration Company still studying Mission Possible reentry

The Exploration Company is still studying what happened in the final phases of a test flight three months ago that resulted in the loss of the spacecraft. The post The Exploration Company still studying Mission Possible reentry appeared first on SpaceNew...

News about space launch
A European spacecraft company flies its vehicle, then loses it after reentry

"This partial success reflects both ambition and the inherent risks of innovation."

News about space launch
The Exploration Company claims partial success of Mission Possible reentry spacecraft

The Exploration Company said it achieved “partial success” on a test flight of a reentry capsule but lost the spacecraft before it splashed down. The post The Exploration Company claims partial success of Mission Possible reentry spacecraft appeared firs...


Newsletter sign-up

Weekly statistics, charts and insights to help you stay on top of the space industry.